TimeCDT,TemperatureF,Dew PointF,Humidity,Sea Level PressureIn,VisibilityMPH,Wind Direction,Wind SpeedMPH,Gust SpeedMPH,PrecipitationIn,Events,Conditions,WindDirDegrees,DateUTC
12:55 AM,39.4,23.4,53,30.06,10.0,WNW,11.5,-,N/A,,Overcast,290,2012-10-06 05:55:00
1:55 AM,39.0,23.7,54,30.07,10.0,WNW,10.4,-,N/A,,Mostly Cloudy,300,2012-10-06 06:55:00
2:55 AM,38.8,24.8,57,30.07,10.0,WNW,10.4,19.6,N/A,,Overcast,290,2012-10-06 07:55:00
3:55 AM,38.5,25.7,60,30.07,10.0,WNW,11.5,-,N/A,,Overcast,300,2012-10-06 08:55:00
4:55 AM,38.1,26.2,62,30.08,10.0,WNW,10.4,-,N/A,,Overcast,290,2012-10-06 09:55:00
5:55 AM,37.8,27.1,66,30.10,10.0,WNW,13.8,18.4,N/A,,Overcast,290,2012-10-06 10:55:00
6:55 AM,37.6,27.5,67,30.12,10.0,WNW,10.4,-,N/A,,Overcast,290,2012-10-06 11:55:00
7:55 AM,37.9,28.2,68,30.14,10.0,WNW,12.7,-,N/A,,Mostly Cloudy,290,2012-10-06 12:55:00
7:57 AM,37.4,28.4,70,30.14,10.0,WNW,12.7,-,N/A,,Mostly Cloudy,290,2012-10-06 12:57:00
7:59 AM,37.4,28.4,70,30.14,10.0,WNW,12.7,-,N/A,,Mostly Cloudy,290,2012-10-06 12:59:00
8:55 AM,38.7,28.8,68,30.15,10.0,NNW,9.2,19.6,N/A,,Overcast,330,2012-10-06 13:55:00
9:17 AM,39.2,28.4,65,30.16,10.0,NW,13.8,-,N/A,,Mostly Cloudy,310,2012-10-06 14:17:00
9:23 AM,39.2,28.4,65,30.16,10.0,NW,16.1,20.7,N/A,,Mostly Cloudy,310,2012-10-06 14:23:00
9:34 AM,39.2,28.4,65,30.17,10.0,NW,10.4,21.9,N/A,,Overcast,310,2012-10-06 14:34:00
9:52 AM,39.2,26.6,61,30.17,10.0,NNW,11.5,-,N/A,,Scattered Clouds,340,2012-10-06 14:52:00
9:55 AM,40.6,27.1,59,30.18,10.0,NNW,10.4,19.6,N/A,,Scattered Clouds,330,2012-10-06 14:55:00
10:55 AM,42.3,27.0,55,30.19,10.0,NNW,13.8,19.6,N/A,,Mostly Cloudy,330,2012-10-06 15:55:00
11:55 AM,41.7,27.3,57,30.19,10.0,WNW,15.0,20.7,N/A,,Mostly Cloudy,290,2012-10-06 16:55:00
12:55 PM,42.3,27.0,55,30.20,10.0,WNW,11.5,-,N/A,,Mostly Cloudy,290,2012-10-06 17:55:00
1:55 PM,43.0,26.8,53,30.19,10.0,NW,11.5,-,N/A,,Overcast,310,2012-10-06 18:55:00
2:55 PM,45.1,26.1,47,30.18,10.0,WNW,12.7,19.6,N/A,,Mostly Cloudy,300,2012-10-06 19:55:00
3:55 PM,43.2,24.6,48,30.18,10.0,NW,11.5,-,N/A,,Overcast,310,2012-10-06 20:55:00
4:55 PM,42.1,25.0,51,30.19,10.0,NW,6.9,-,N/A,,Overcast,320,2012-10-06 21:55:00
5:55 PM,41.5,25.0,52,30.19,10.0,WNW,5.8,-,N/A,,Overcast,300,2012-10-06 22:55:00
6:55 PM,39.2,25.3,58,30.21,10.0,NW,4.6,-,N/A,,Overcast,310,2012-10-06 23:55:00
7:55 PM,37.0,25.2,62,30.22,10.0,WNW,5.8,-,N/A,,Overcast,300,2012-10-07 00:55:00
8:55 PM,37.8,24.1,58,30.22,10.0,NW,5.8,-,N/A,,Overcast,320,2012-10-07 01:55:00
9:55 PM,38.3,23.5,55,30.22,10.0,NW,5.8,-,N/A,,Overcast,320,2012-10-07 02:55:00
10:55 PM,36.7,24.6,62,30.22,10.0,NW,3.5,-,N/A,,Overcast,310,2012-10-07 03:55:00
11:55 PM,34.2,25.9,72,30.22,10.0,West,4.6,-,N/A,,Overcast,280,2012-10-07 04:55:00